Location: Spruce Knob
(38.6995°N, 79.5330°W)
Time: 13:18:42
(UTC-04:00)

MOZHAYETS 4 - Pass Details

Date: 29 May 2024
Orbit: 652 x 670 km, 98.3° (Epoch: 14 June)

Event Time Altitude Azimuth Distance (km) Brightness Sun altitude
Rises 04:21:58 0° 155° (SSE) 2,983 10.9 -15.5°
Reaches altitude 10° 04:24:13 10° 151° (SSE) 2,072 10.1 -15.2°
Maximum altitude 04:28:38 56° 74° (ENE) 782 8.4 -14.6°
Drops below altitude 10° 04:33:04 10° 356° (N) 2,075 10.8 -13.9°
Sets 04:35:18 0° 352° (N) 2,988 11.6 -13.6°
